Flag for U.S.A. Weather past 2 weeks in Tampa, Florida, U.S.A.

Now
86 °F

Passing clouds.


Feels Like: 93 °F
Forecast: 74 / 92 °F
Wind: 7 mph from Southeast

Location: Tampa International Airport

Current Time: Sep 1, 2014 at 11:19:37 AM

Latest Report: Sep 1, 2014 at 10:53 AM


Visibility: 10 mi

Pressure: 30.13 "Hg

Humidity: 65%

Dew point: 73 °F

Location of TampaLocation

Historic Weather in Tampa — Graph

°F

Tampa temperature yesterday

Maximum temperature yesterday: 93 °F (at 2:53 PM)
Minimum temperature yesterday: 76 °F (at 6:53 AM)
Average temperature yesterday: 82 °F

Past Weeks' High & Low Weather Summary

 TemperatureHumidityPressure
High95 °F (Aug 24, 2:53 PM)94% (Aug 23, 4:53 AM)30.15 "Hg (Aug 23, 4:53 AM)
Low75 °F (Aug 26, 3:53 AM)40% (Aug 26, 5:53 PM)29.75 "Hg (Aug 24, 5:53 PM)
Average84 °F70%30.00 "Hg
* Reported Aug 17 9:53 AM — Sep 1 9:53 AM, Tampa, Weather by CustomWeather, © 2014

Note: Actual official high and low records may vary slightly from our data, if they occured in-between our weather recording intervals... More about our weather records

Advertising

Tampa weather history for previous 24 hours

 ConditionsComfort  
Time TempWeatherWind HumidityBarometerVisibility
9:53 AM
Sep 1
84 °FSunny.5 mph72%30.12 "Hg10 mi
8:53 AM81 °FPassing clouds.5 mph82%30.11 "Hg10 mi
7:53 AM78 °FPassing clouds.3 mph84%30.10 "Hg9 mi
6:53 AM77 °FPassing clouds.No wind88%30.08 "Hg10 mi
5:53 AM77 °FPassing clouds.No wind88%30.06 "Hg10 mi
4:53 AM78 °FClear.3 mph82%30.06 "Hg10 mi
3:53 AM78 °FClear.No wind84%30.06 "Hg10 mi
2:53 AM78 °FClear.6 mph84%30.09 "Hg10 mi
1:53 AM79 °FPassing clouds.No wind84%30.11 "Hg10 mi
12:53 AM80 °FPassing clouds.No wind85%30.12 "Hg10 mi
11:53 PM
Aug 31
80 °FPassing clouds.No wind85%30.12 "Hg10 mi
10:53 PM80 °FPassing clouds.5 mph81%30.12 "Hg10 mi
9:53 PM80 °FPartly cloudy.No wind85%30.11 "Hg10 mi
8:53 PM80 °FMostly cloudy.5 mph76%30.09 "Hg10 mi
7:53 PM81 °FBroken clouds.No wind82%30.07 "Hg10 mi
6:53 PM81 °FBroken clouds.5 mph82%30.06 "Hg9 mi
6:03 PM79 °FLight rain. Partly sunny.6 mph82%30.07 "Hg8 mi
4:53 PM83 °FLight rain. Partly sunny.3 mph65%30.05 "Hg6 mi
3:53 PM90 °FBroken clouds.7 mph54%30.06 "Hg10 mi
2:53 PM93 °FPartly sunny.5 mph49%30.08 "Hg10 mi
1:53 PM92 °FPartly sunny.3 mph51%30.10 "Hg10 mi
12:53 PM89 °FScattered clouds.6 mph57%30.12 "Hg10 mi
11:53 AM89 °FScattered clouds.6 mph59%30.13 "Hg10 mi
Weather by CustomWeather, © 2014

See weather overviewHow to use our weather pages